Theta_e
326 322 319 316 321 316 310 305 297 296 295 290 288 288 291 296 297 298 299 301 301 305 308 312 313 313 312 310 313 316 316 310 310 298 297 311 328 333 335 337 338 339 341 342 342 343 343 346 347 346 345 344 343 343 341 341 341 341 342 342 341 339 339 339 340 343 344 344 344 344 344 344 343 344 347 348 347 347 347 346 346 345 345 344 344 344 343 342 340 339 340 340 339 339 339 340 341
324 322 317 317 315 311 305 301 293 289 289 287 290 289 293 294 297 297 298 300 301 307 308 316 318 318 319 319 318 315 313 318 318 315 320 326 332 334 337 338 339 340 340 341 341 342 342 344 346 345 344 343 342 342 340 340 341 339 341 341 340 341 341 340 340 342 342 341 343 344 345 344 343 343 344 347 347 346 346 346 346 345 344 344 344 344 343 342 341 340 338 339 339 339 339 340 340
325 319 316 314 310 309 306 299 295 287 285 284 286 291 297 297 297 299 301 305 306 308 312 316 315 315 315 317 314 311 305 320 322 322 320 329 328 331 337 339 339 340 340 340 341 341 342 343 345 345 343 342 342 342 339 340 341 339 340 340 339 341 341 341 342 341 340 343 343 344 343 342 343 344 345 346 347 346 346 345 346 346 345 344 343 344 343 342 341 340 339 338 338 339 339 339 340
321 319 317 309 306 304 297 294 290 287 288 286 289 294 297 299 299 302 304 306 306 305 307 309 307 311 316 313 315 319 316 318 323 321 319 324 327 335 337 338 339 340 340 340 340 339 339 343 344 346 345 343 343 342 340 339 339 340 340 339 339 341 341 341 340 339 341 341 343 343 343 345 346 347 346 346 346 346 345 344 343 342 342 342 341 342 342 341 340 340 339 339 339 339 339 339 339
315 320 319 308 304 301 298 295 290 286 287 287 288 293 299 300 302 302 304 304 306 306 307 309 308 316 319 317 318 310 312 321 324 325 322 325 334 336 337 338 339 338 338 339 339 338 339 343 344 344 344 343 343 342 341 340 339 339 339 339 339 339 339 339 339 339 340 341 343 343 345 346 346 346 346 346 345 345 344 343 343 342 342 341 341 341 341 340 339 339 338 338 339 339 338 339 339
315 312 318 311 305 305 298 292 290 290 288 291 293 298 300 302 303 303 305 306 308 306 307 308 307 309 316 318 319 314 322 317 323 325 324 324 333 337 338 337 338 337 338 338 338 337 338 341 342 343 344 342 342 343 342 340 339 339 339 339 338 337 337 339 339 338 339 341 341 342 343 345 346 345 345 345 344 344 342 341 341 342 341 341 340 341 341 339 339 338 337 337 338 338 338 338 338
315 308 308 305 304 302 293 289 290 288 293 295 298 300 302 302 304 304 304 305 306 306 307 314 319 316 314 318 320 323 325 325 324 325 326 326 332 336 336 337 337 336 337 337 336 337 338 340 343 344 344 344 343 345 342 341 340 339 339 336 337 340 341 341 340 339 339 340 340 341 342 345 345 344 344 344 344 344 343 343 342 341 341 341 341 340 340 339 338 338 337 337 337 337 337 337 337
315 307 306 298 297 297 293 291 291 289 295 298 301 303 302 304 303 302 302 300 303 304 306 311 309 312 311 320 312 321 327 327 327 329 328 327 330 331 334 337 335 335 336 336 335 336 343 340 343 343 343 344 343 344 343 341 340 339 339 336 340 341 341 342 342 341 341 340 341 342 342 343 344 344 344 344 344 343 342 341 340 340 340 340 340 339 339 338 337 337 337 337 336 336 336 336 336
310 310 306 299 296 295 291 294 294 292 294 298 301 305 308 305 302 302 301 302 303 304 305 308 309 308 312 316 314 320 323 328 329 329 326 326 326 328 335 336 335 334 335 335 335 336 337 339 341 342 343 344 344 343 343 342 340 339 338 338 339 342 342 342 342 341 342 342 342 342 342 343 343 343 343 343 342 342 341 341 341 340 340 340 340 339 339 337 337 337 336 336 335 335 335 335 335
308 305 298 298 297 295 292 292 290 293 294 297 301 303 304 302 302 302 300 301 303 304 306 307 308 310 316 314 315 320 321 328 328 326 326 325 325 329 335 336 336 335 334 334 334 335 336 343 338 339 341 343 343 343 342 342 340 339 339 340 342 342 342 342 342 342 342 342 341 342 343 343 343 343 342 342 341 341 341 340 340 340 339 340 338 338 338 337 336 336 336 335 334 334 334 335 335
301 303 304 298 292 291 292 292 289 293 295 297 299 304 304 302 302 300 301 301 302 303 304 310 315 315 315 314 313 320 327 329 326 324 326 326 325 330 334 336 336 336 334 333 333 334 335 336 340 337 340 341 342 343 342 342 341 340 340 342 342 341 342 342 342 342 341 341 340 341 343 343 342 342 341 341 341 340 340 340 341 340 340 339 339 339 338 337 336 336 335 334 334 333 334 334 334
301 299 300 291 293 292 291 293 292 292 294 296 300 299 299 300 299 299 300 302 303 302 303 305 312 317 313 312 313 323 326 327 327 327 328 328 326 332 334 335 335 335 334 333 333 331 332 332 335 339 336 337 339 341 341 341 342 342 342 342 342 342 342 341 341 341 340 339 339 341 342 342 341 341 341 341 341 341 340 340 340 339 340 339 338 338 337 336 335 336 335 334 333 333 333 334 334
301 300 295 295 292 294 293 293 292 292 292 295 297 300 299 301 300 300 301 302 301 303 303 305 316 315 310 311 316 323 325 326 328 329 329 326 327 331 333 333 333 333 333 333 333 331 330 330 332 332 333 334 334 335 337 338 340 342 342 343 343 343 342 341 340 340 340 339 341 342 342 342 342 341 341 341 341 340 340 340 339 338 338 338 338 337 337 336 335 335 334 334 333 333 333 333 333
305 304 300 296 296 295 295 295 291 292 291 295 297 298 301 301 300 300 302 301 301 301 304 308 317 318 313 316 318 318 323 327 329 329 328 326 328 330 330 331 330 332 332 333 333 332 331 331 333 332 329 330 329 332 333 336 339 340 340 340 341 341 341 341 342 342 342 341 341 340 340 341 342 341 341 341 340 339 338 337 339 338 337 337 337 337 336 336 335 334 334 333 333 333 333 333 333
311 307 300 297 296 294 295 295 294 291 291 295 299 300 301 304 300 299 304 300 300 304 309 313 319 310 308 314 312 319 324 328 329 328 327 326 328 328 328 329 330 329 330 332 332 332 332 333 334 333 328 327 328 329 330 335 334 337 337 338 338 339 340 340 340 338 338 338 338 337 336 335 334 335 336 337 337 336 336 334 336 338 337 337 336 336 336 335 335 334 333 333 332 332 332 332 332
312 307 300 298 294 295 294 297 294 292 293 295 299 298 300 303 301 302 303 303 304 307 305 306 312 306 310 316 315 323 327 328 328 328 326 325 325 326 327 327 328 328 328 330 332 331 332 332 334 334 329 328 328 330 332 332 333 332 334 335 336 337 337 337 335 334 332 332 332 331 329 328 328 328 329 331 333 336 334 330 333 336 336 336 335 336 336 335 335 334 333 333 333 333 333 332 333
309 310 303 295 294 294 294 297 294 293 293 296 298 301 300 301 303 302 303 305 306 306 313 315 311 318 319 318 318 326 328 328 326 326 324 323 323 322 322 323 324 324 327 329 330 330 331 331 334 333 330 328 328 329 330 332 332 330 330 331 332 333 334 333 332 327 325 325 325 324 325 325 324 325 325 326 325 326 325 327 331 335 335 335 335 334 334 334 333 333 333 332 332 332 330 329 327
304 303 300 297 296 295 297 299 297 299 297 297 299 299 299 298 301 303 304 307 305 307 311 310 319 319 320 321 326 328 329 326 326 324 322 320 320 320 320 321 322 321 323 326 328 330 331 331 332 333 331 329 328 329 330 331 330 331 329 328 330 330 329 328 326 326 329 324 322 324 324 325 324 323 324 329 323 323 325 325 329 334 335 334 335 334 333 333 332 332 331 331 331 331 325 313 315
299 296 299 300 299 301 303 299 297 296 297 299 299 298 301 300 300 302 300 300 304 304 307 311 313 317 321 324 326 327 326 325 325 324 321 320 320 319 319 319 320 321 321 323 325 328 331 331 331 332 332 330 328 327 329 329 329 328 328 327 328 327 329 327 326 326 323 323 323 323 323 324 323 323 323 325 324 320 324 324 329 331 333 332 334 333 333 332 332 331 331 331 331 326 314 313 314
300 296 294 298 303 305 300 298 298 296 298 299 297 298 299 301 301 302 299 299 302 302 305 307 311 313 317 320 324 325 325 324 325 323 322 321 320 320 319 319 319 321 322 323 324 327 330 330 330 331 332 331 328 327 327 328 328 328 327 327 326 326 326 325 325 324 323 323 323 322 323 322 323 323 327 328 326 324 324 322 324 325 328 329 330 330 331 331 331 331 330 328 323 320 317 316 314
302 298 295 298 302 303 304 300 298 297 300 298 297 297 299 299 300 300 297 299 298 300 307 311 312 316 318 321 323 323 323 323 323 323 322 321 321 321 321 321 320 321 321 323 323 325 329 330 330 329 332 332 329 328 327 327 327 327 327 326 326 325 325 324 325 324 324 323 322 323 321 320 322 323 323 322 321 321 321 321 322 323 325 326 324 324 322 321 320 317 317 318 315 317 316 316 314
300 299 301 303 300 300 300 300 298 297 295 296 295 298 299 300 301 298 300 296 296 300 303 310 317 320 320 320 322 323 322 322 322 322 322 321 320 320 321 320 319 320 321 322 322 324 327 330 329 329 330 332 330 328 327 327 327 327 326 326 326 325 325 324 324 324 324 324 322 322 322 322 321 322 321 320 320 320 320 320 322 322 322 322 322 322 320 320 319 317 317 315 314 312 314 315 314
300 300 300 300 299 300 300 299 299 297 297 296 296 298 298 299 299 297 299 296 297 299 302 308 320 322 323 324 323 321 321 321 322 322 323 322 321 321 321 322 321 319 320 322 324 324 326 329 329 328 328 331 331 329 328 326 327 327 327 326 325 325 325 325 324 324 324 324 323 322 322 320 321 321 321 320 320 319 320 320 321 320 320 320 320 321 320 320 319 317 316 316 314 312 314 315 314
303 301 300 302 301 301 298 299 297 295 297 297 297 297 298 295 297 297 297 297 298 299 298 307 320 323 324 322 322 322 322 322 322 323 324 324 323 323 323 322 322 321 319 321 323 324 324 326 328 326 327 330 331 330 328 326 327 326 326 325 326 324 325 325 325 325 325 324 323 323 323 322 322 321 321 320 320 319 320 320 319 319 319 320 321 320 319 318 318 315 315 315 315 314 315 315 316
302 301 302 301 301 300 297 296 295 296 298 297 298 298 296 295 296 296 296 298 298 298 302 304 321 321 323 322 322 322 322 322 322 323 324 325 325 324 323 323 322 321 319 320 323 323 324 325 327 325 326 329 332 331 328 327 327 326 325 324 325 324 325 325 325 325 325 325 325 324 323 323 322 323 322 321 320 321 320 319 319 320 320 320 319 319 319 319 318 316 316 318 317 316 314 316 316
302 303 303 304 302 301 296 295 296 297 298 296 298 296 295 295 296 297 298 298 297 298 307 312 320 320 320 321 322 322 322 322 322 322 323 324 324 323 322 323 322 321 321 321 322 322 324 325 325 325 325 328 331 331 329 327 327 326 325 324 325 322 324 325 324 324 325 325 325 325 324 324 323 323 322 321 321 321 320 319 319 320 321 321 320 319 319 319 320 317 316 317 317 315 315 318 316
305 303 304 305 303 297 296 298 296 296 298 295 298 295 297 296 297 296 298 299 298 306 308 312 319 319 320 321 322 322 322 322 322 324 323 322 323 323 323 323 322 322 322 321 322 323 323 325 325 325 325 326 329 330 329 328 327 326 325 325 324 322 324 324 323 324 325 325 325 325 324 324 324 323 322 321 321 321 320 320 320 320 320 320 321 320 319 319 320 318 317 317 316 315 316 316 315
304 306 304 303 300 296 297 296 296 296 298 295 298 296 295 295 297 299 300 298 299 303 308 310 316 318 319 320 321 322 322 323 323 322 322 321 322 323 323 322 323 323 322 321 322 323 323 324 325 325 325 325 326 329 327 327 326 326 325 325 325 323 323 324 323 323 323 325 325 325 325 324 323 324 323 322 321 321 321 321 320 319 320 321 321 321 319 319 319 318 317 316 316 316 317 314 313
303 304 300 301 300 296 296 296 295 296 298 296 297 296 295 294 295 298 301 297 298 300 306 309 311 316 318 319 320 320 321 322 322 322 323 324 325 325 324 324 324 323 324 323 322 322 322 324 325 324 325 323 325 327 326 326 326 325 323 324 324 323 323 323 322 322 323 324 324 324 324 324 323 324 323 322 320 321 321 321 320 320 321 321 320 321 320 319 318 316 316 316 315 315 314 316 312
303 302 298 298 298 296 298 296 296 296 298 295 301 293 297 299 299 298 299 299 297 297 300 307 309 311 314 317 319 319 320 319 320 322 324 324 325 325 325 325 324 324 324 324 323 321 323 324 325 325 325 324 324 326 325 324 324 324 323 323 323 323 322 323 322 322 322 323 324 324 324 324 323 323 323 322 322 322 322 321 321 321 321 320 320 320 319 318 318 316 318 315 317 317 317 317 313
303 300 299 294 291 290 295 297 295 295 296 295 301 294 298 299 301 301 298 298 299 298 298 302 306 308 310 312 316 318 319 320 321 323 323 324 325 325 325 326 325 324 323 323 323 322 322 323 324 325 324 325 323 324 324 324 323 324 323 323 323 323 322 322 323 323 323 323 324 324 324 324 324 324 323 323 322 322 322 321 321 322 322 320 319 319 320 319 317 318 316 317 317 315 315 316 315
300 298 294 295 293 290 297 297 295 296 297 298 299 292 296 299 301 302 300 297 299 299 299 299 301 304 307 309 312 315 317 320 321 322 323 324 325 325 325 325 326 325 324 324 324 323 322 322 323 324 324 324 324 324 324 324 323 323 323 322 323 322 322 322 322 323 323 323 323 324 324 324 324 324 323 323 322 321 322 322 322 322 321 320 319 318 319 319 318 318 317 319 316 316 315 316 311
299 300 292 293 291 292 297 300 295 298 295 297 298 293 291 295 299 299 299 298 297 298 298 298 299 301 302 305 308 311 313 314 316 320 322 323 324 325 326 326 326 326 325 324 324 324 322 322 321 323 323 324 324 324 324 324 323 323 323 322 323 323 322 322 323 323 323 323 322 323 324 324 324 325 324 323 323 322 322 322 322 322 322 320 319 318 319 319 319 319 317 317 318 318 315 315 315
296 297 294 293 294 293 294 298 298 296 297 294 295 293 295 296 298 297 297 297 296 297 298 298 298 300 301 302 303 306 309 312 313 316 320 323 324 325 326 324 327 327 326 325 325 325 324 322 322 322 323 324 325 324 324 324 323 323 323 322 322 323 323 323 323 322 323 323 322 322 323 324 324 325 324 323 323 323 323 322 322 322 321 320 320 319 319 319 318 319 318 317 317 317 315 315 315
296 296 293 293 295 296 296 296 299 295 295 295 294 293 295 298 299 299 298 296 295 296 298 298 298 298 300 302 302 302 304 308 313 315 318 322 323 324 326 326 326 326 327 325 325 326 325 323 322 321 322 323 324 324 323 323 322 322 322 322 322 322 323 323 323 322 322 323 323 323 322 324 323 324 325 323 323 323 322 322 322 321 321 320 320 319 319 318 318 318 318 318 316 317 318 316 316
300 299 297 295 294 293 296 299 298 297 294 294 293 293 294 296 297 298 299 298 295 296 296 297 297 297 297 299 301 302 302 304 310 315 316 319 323 324 325 326 326 327 327 327 324 325 325 324 322 321 321 322 323 323 323 322 321 320 320 319 320 321 322 322 323 323 323 323 323 323 322 323 324 324 325 325 323 322 322 322 321 321 321 321 320 319 318 318 318 317 317 318 317 315 315 316 315
303 300 298 298 296 295 298 300 299 298 294 294 295 295 295 296 297 298 299 298 296 294 295 296 297 297 298 297 299 302 303 304 308 311 315 318 321 323 325 325 325 325 326 326 325 324 325 326 323 321 321 321 322 321 321 321 320 320 320 321 321 322 322 323 323 323 323 323 323 323 323 323 323 323 323 324 323 321 322 322 321 320 321 321 321 321 321 320 320 320 319 316 316 315 315 314 314
302 300 298 297 296 296 298 300 300 297 295 294 295 294 295 296 298 298 297 297 298 299 297 296 296 297 298 298 298 299 302 304 305 307 310 313 318 321 323 325 323 323 324 325 325 325 325 326 325 324 322 321 322 322 321 321 322 322 321 321 322 322 321 321 322 323 323 323 323 323 323 323 323 323 322 324 323 323 322 322 321 321 320 321 321 322 321 318 319 319 318 315 314 316 315 315 315
302 299 297 295 295 297 299 294 295 298 295 294 292 293 295 297 298 299 298 299 300 301 301 300 298 298 298 299 299 299 299 302 304 307 309 312 315 319 322 323 324 325 325 325 326 325 325 325 325 325 324 323 322 322 322 321 322 323 322 321 322 320 321 323 323 322 322 322 322 323 323 323 324 323 323 322 323 323 322 322 321 322 321 320 320 320 320 320 320 319 319 319 315 311 315 314 315
300 299 297 295 296 297 292 294 292 296 296 291 289 290 293 294 296 298 300 300 301 302 302 301 301 300 300 300 301 301 300 301 302 305 307 308 312 316 320 321 323 324 324 324 325 325 325 325 325 326 325 324 323 323 320 322 322 323 323 321 321 322 320 319 320 318 321 321 322 323 323 324 324 324 323 323 323 324 322 322 321 321 320 320 321 320 321 320 320 320 319 318 318 315 313 314 315
300 301 299 297 296 297 297 294 291 291 294 292 291 291 294 293 294 296 298 298 299 302 301 302 301 301 302 303 302 302 302 302 302 303 305 306 309 313 317 321 322 322 323 324 324 325 326 325 326 326 326 325 325 323 322 322 321 319 319 317 316 318 317 318 319 320 321 321 322 322 323 323 324 324 324 323 322 322 323 322 320 320 320 320 320 320 320 321 321 321 321 319 318 318 315 313 313
299 301 302 300 298 297 297 292 292 290 290 293 293 284 286 289 293 297 299 297 297 298 298 300 301 301 300 300 301 302 302 303 303 304 305 306 308 312 315 318 320 322 323 324 325 325 326 326 326 325 326 326 326 325 324 323 322 321 320 319 319 319 320 320 320 321 321 321 322 323 323 323 323 324 324 324 323 321 322 322 321 320 319 319 320 321 321 321 321 321 321 321 319 319 319 315 313
296 299 304 304 301 295 292 290 291 284 285 289 292 289 285 287 290 291 293 294 296 297 297 299 300 300 300 301 302 302 302 302 301 302 303 305 306 310 314 316 319 321 323 324 324 325 325 325 325 326 326 326 326 326 325 323 324 323 322 321 321 320 320 321 323 323 323 324 323 322 323 323 324 324 323 324 324 323 322 323 322 321 320 320 319 320 321 321 322 322 322 321 321 320 318 316 315
295 302 304 304 300 295 292 292 293 285 289 290 290 289 286 288 293 294 292 292 294 295 297 297 299 300 301 301 301 302 303 303 303 301 301 303 305 308 312 316 318 321 323 323 324 324 324 325 325 325 326 325 326 326 325 325 324 324 323 322 322 322 321 321 322 323 322 321 323 323 323 323 324 324 324 324 324 324 322 323 323 322 321 321 319 320 321 322 322 322 321 322 321 320 319 318 316
298 302 305 303 301 298 295 294 290 289 289 286 286 287 286 284 287 288 290 292 294 295 297 298 299 299 300 301 302 302 303 304 303 303 301 301 303 306 310 314 318 320 321 322 323 324 324 325 324 325 325 324 325 325 325 325 324 325 324 324 322 322 323 322 318 318 321 320 322 323 323 324 324 324 325 325 325 325 322 323 323 323 323 322 320 321 321 321 322 321 321 321 321 320 320 320 319
298 302 303 302 299 297 296 291 291 288 287 288 285 287 286 288 289 290 290 290 293 297 298 299 300 300 300 301 302 303 303 302 302 304 304 302 302 304 308 313 316 319 321 321 323 323 324 324 323 323 324 324 324 325 324 324 324 323 324 324 323 323 322 321 318 319 319 319 321 322 323 323 324 324 325 326 326 326 327 325 325 326 326 326 322 323 322 322 322 322 322 322 322 321 321 320 320
300 301 298 295 293 290 288 288 287 288 286 289 289 287 288 285 291 293 291 294 298 297 296 297 298 299 301 301 302 304 303 302 301 302 303 304 303 302 304 309 314 317 318 319 320 321 322 322 322 322 324 325 323 324 324 324 324 324 324 324 323 323 322 321 319 319 318 318 320 321 321 322 323 325 326 327 328 328 328 327 327 327 328 327 325 326 325 325 325 324 324 324 323 323 322 322 319
300 292 293 294 289 291 288 286 287 286 286 288 287 287 289 285 285 289 296 295 293 297 297 296 295 297 299 299 300 301 302 302 301 300 301 302 300 299 299 304 308 312 314 315 316 317 318 320 321 321 322 322 323 323 323 324 324 324 324 324 323 323 322 321 320 320 319 319 320 320 320 321 322 325 326 327 327 328 328 328 327 327 326 327 327 328 328 328 327 326 326 325 325 324 324 322 322
296 294 295 291 284 287 284 285 283 285 286 285 284 285 284 287 289 290 292 295 297 296 297 297 296 296 296 297 298 300 300 299 299 299 299 299 300 300 299 301 303 306 312 313 315 315 317 318 319 319 320 321 322 322 322 323 323 323 323 323 323 323 322 322 321 320 320 320 320 319 319 320 322 323 325 325 327 328 328 328 328 327 327 327 327 327 328 328 328 327 327 326 325 325 324 323 322
295 294 293 290 283 282 283 282 283 282 284 284 284 285 285 288 289 296 298 301 301 298 297 297 297 297 298 298 297 297 297 298 299 299 298 299 300 300 300 300 301 305 308 312 313 314 316 317 318 319 320 320 321 321 322 321 322 323 323 323 323 322 321 322 322 321 320 320 320 320 320 320 320 323 324 324 327 327 328 328 328 328 328 328 327 327 327 327 327 326 326 325 325 326 325 324 323
296 299 297 292 290 284 283 282 282 284 283 280 282 284 282 284 285 290 298 300 295 294 295 295 295 296 296 293 292 293 293 294 296 297 298 298 299 299 300 299 299 302 304 308 311 314 315 316 317 317 319 319 319 320 321 321 322 322 322 323 323 322 322 321 321 321 320 319 319 319 319 319 320 320 322 324 323 326 327 328 328 328 328 328 327 326 326 326 326 326 326 326 325 324 324 324 324
295 295 297 291 290 287 284 276 281 275 276 276 277 285 282 288 289 292 293 292 293 293 292 292 294 294 291 292 294 294 294 296 295 295 296 296 297 296 297 297 298 299 301 305 308 311 313 316 316 317 318 319 318 318 320 321 322 322 321 321 322 321 320 320 320 319 318 318 318 319 319 319 320 320 319 319 320 323 325 326 326 327 327 327 327 327 327 326 326 326 325 325 325 325 325 324 323
292 296 291 294 293 287 280 278 278 275 273 277 277 281 284 285 292 296 297 296 295 293 292 289 292 294 291 293 293 293 294 294 294 295 296 296 293 294 296 297 297 297 298 302 306 309 312 314 314 315 316 314 314 315 318 319 320 319 319 320 320 319 319 319 320 318 317 317 318 318 319 319 318 319 319 318 320 321 324 325 325 325 326 326 326 326 326 326 325 325 325 325 323 323 322 323 324
295 290 294 294 295 291 284 277 271 272 273 275 279 282 281 281 283 287 293 294 296 294 291 291 289 290 292 294 293 294 294 294 294 294 294 294 295 295 295 295 296 298 298 300 303 306 309 310 311 312 310 311 311 313 315 316 316 317 318 318 318 319 319 319 319 319 316 316 316 316 315 316 316 317 318 318 319 319 321 317 323 324 325 326 325 325 325 326 325 324 324 324 325 324 322 320 319
297 295 298 296 286 287 283 279 277 271 272 271 273 279 279 283 286 286 288 291 294 295 292 288 290 289 292 294 294 293 292 292 293 293 293 293 294 296 296 296 295 295 295 296 296 297 298 299 302 308 310 312 311 311 311 312 313 316 316 315 315 316 317 318 317 315 314 315 315 315 315 316 315 314 314 315 316 317 318 319 321 322 323 323 324 324 324 324 324 323 322 323 323 323 322 321 320
293 296 295 293 289 291 288 287 278 278 272 271 273 274 280 285 285 290 292 290 292 293 291 291 292 291 292 294 295 295 293 294 293 293 293 294 295 295 296 296 296 296 295 294 295 295 297 299 299 301 301 300 301 305 305 309 309 311 312 310 311 314 314 314 313 313 313 314 314 314 314 311 313 311 313 314 314 314 314 315 316 319 320 321 322 323 323 322 322 322 321 319 320 321 321 320 320
290 293 291 290 288 289 290 285 280 280 271 269 271 273 280 281 287 292 294 296 295 294 294 294 293 292 292 294 296 295 293 293 293 294 294 295 295 295 293 292 293 293 292 293 296 297 297 296 297 298 301 300 301 302 303 306 305 306 306 308 308 307 308 308 307 309 311 311 311 309 311 311 305 309 309 309 311 312 313 314 316 316 319 320 320 321 321 321 320 319 319 318 317 318 318 318 317
294 294 291 293 289 286 286 283 283 274 277 275 272 278 283 280 290 295 295 297 297 296 294 294 292 293 293 293 293 293 292 292 293 294 294 294 294 293 291 292 292 292 292 293 295 294 294 296 298 297 297 299 299 299 301 302 301 303 303 304 303 301 305 304 306 305 307 306 305 305 305 301 304 307 305 310 309 310 310 312 314 315 317 318 319 320 319 318 317 315 314 316 316 316 316 315 312
Wind_Speed
6 5 6 4 1 1 2 4 1 3 3 1 1 2 2 0 1 2 1 1 3 2 1 3 4 3 2 4 9 6 1 1 1 4 2 1 3 10 9 9 8 8 8 5 4 5 6 7 11 12 13 13 13 14 13 13 12 12 12 12 12 11 11 11 12 14 14 14 14 14 14 14 13 15 16 15 15 16 16 17 18 18 17 17 17 17 16 16 16 16 16 16 16 15 15 15 16
3 5 5 2 1 1 1 2 3 2 6 4 0 1 0 3 3 3 4 2 2 2 1 7 10 13 13 11 10 3 4 3 2 1 1 1 7 8 10 11 10 11 7 5 5 5 4 6 11 11 13 13 12 12 12 12 13 11 13 12 12 13 12 11 12 13 13 13 13 14 14 14 14 13 15 15 15 16 16 17 18 18 18 17 16 16 16 15 15 15 15 15 15 15 15 15 15
3 5 5 4 2 3 1 3 1 1 4 1 3 1 1 3 3 2 3 4 4 5 6 10 9 6 4 2 5 3 1 3 3 2 2 4 11 6 8 10 9 9 9 5 5 5 4 7 10 12 13 13 13 12 11 10 13 11 11 11 9 12 12 11 11 11 12 14 14 13 13 14 14 13 14 15 16 16 16 16 18 18 17 16 16 16 16 15 15 15 15 15 15 14 15 14 15
1 1 1 3 2 4 1 3 3 4 4 5 1 1 2 7 4 4 3 2 2 4 2 1 4 2 5 9 3 3 3 2 1 3 4 6 4 8 8 10 9 7 7 6 5 4 5 8 11 12 12 13 13 13 11 10 10 12 12 10 11 12 12 12 13 12 12 13 14 13 13 14 14 14 14 15 15 16 15 16 17 16 15 15 15 15 15 14 14 14 14 14 14 14 14 14 14
4 2 0 2 2 3 1 0 3 3 3 4 5 2 3 4 7 3 1 2 1 2 2 2 4 3 2 6 1 1 4 1 3 3 2 0 7 9 8 9 9 8 8 7 6 6 5 10 11 11 13 13 14 13 13 11 10 11 11 10 11 11 11 11 12 11 12 13 13 13 14 14 15 15 15 16 16 16 16 16 16 15 15 15 15 15 15 14 14 14 14 14 14 13 13 13 13
2 3 2 1 0 2 5 2 3 0 4 5 4 4 5 5 7 4 2 0 0 2 3 4 4 2 3 2 1 3 4 5 3 1 3 5 11 11 9 9 9 7 7 6 6 6 6 11 11 12 13 13 13 14 12 12 12 11 11 11 12 10 11 11 11 10 12 13 14 13 13 14 14 15 14 14 15 15 15 14 15 15 14 15 15 15 14 14 14 14 14 13 13 13 13 12 13
2 3 3 4 2 4 3 2 2 2 2 6 6 6 7 5 4 6 3 2 2 4 2 4 7 6 5 0 2 1 2 1 4 3 4 7 10 11 10 8 8 8 7 6 5 6 7 12 12 12 12 12 13 13 12 13 12 12 12 10 11 12 13 11 12 10 9 10 12 13 13 14 14 14 14 13 15 15 15 15 16 15 14 14 14 14 13 13 14 13 13 13 13 13 12 12 12
1 2 2 2 1 3 1 1 3 3 1 4 4 9 5 6 5 4 3 3 2 2 1 4 2 6 1 2 2 2 2 2 4 6 10 10 10 10 9 9 9 8 7 6 5 5 8 11 11 11 12 14 14 15 14 13 12 12 12 11 13 12 12 12 11 11 11 11 12 13 12 13 13 13 14 14 14 15 15 14 14 13 13 14 14 14 13 13 13 13 13 13 13 12 11 11 11
2 1 1 3 1 2 2 2 3 3 1 2 1 2 7 7 5 5 2 1 1 1 3 5 4 6 1 3 1 3 2 2 7 10 11 12 11 9 8 9 10 8 7 6 5 5 6 9 11 11 11 12 13 14 14 13 13 12 11 12 11 12 12 12 12 10 11 12 12 12 12 13 13 14 14 14 14 14 14 14 14 13 13 13 13 13 12 12 12 12 12 12 12 11 10 11 11
1 2 2 1 2 2 1 5 1 3 3 3 6 6 5 4 4 4 5 3 3 2 1 1 2 5 3 4 1 1 0 4 10 8 9 11 10 10 9 9 10 9 7 6 5 5 5 9 10 10 12 12 12 12 13 12 12 12 11 12 12 12 12 12 12 11 12 13 12 12 12 13 13 13 14 14 13 14 14 14 14 13 13 13 13 12 12 12 12 12 12 11 11 10 10 10 10
1 4 2 1 3 1 1 5 2 1 1 0 2 5 7 5 6 4 3 4 0 3 1 2 6 7 3 1 1 3 1 6 12 11 8 9 9 11 9 8 9 10 7 6 5 4 4 5 9 9 9 10 10 11 11 11 12 12 12 12 13 13 13 13 12 12 12 13 12 12 13 13 13 13 13 13 13 13 14 14 14 13 13 13 13 12 11 11 11 11 11 11 10 9 9 9 9
1 1 2 2 1 1 2 0 1 2 2 1 4 3 3 5 5 4 4 6 1 4 2 3 4 5 4 1 1 1 3 6 9 9 7 7 8 10 10 7 8 6 7 5 4 3 3 3 4 6 8 10 10 10 10 10 11 10 11 13 13 13 13 13 13 13 12 12 12 12 11 11 12 13 12 11 10 12 13 13 13 13 12 12 12 11 10 10 10 10 10 9 9 9 8 8 8
3 1 4 3 1 1 1 0 2 1 1 3 4 2 4 7 7 9 5 4 4 3 0 3 10 3 2 1 1 0 5 5 5 6 5 7 9 8 9 8 8 7 6 5 5 3 3 2 2 2 5 9 9 9 9 9 9 8 11 11 12 12 11 12 12 12 11 11 10 10 10 10 10 11 11 11 10 12 12 11 11 11 11 11 11 11 10 10 10 9 9 8 7 7 8 8 8
2 2 3 1 1 1 2 0 1 2 2 2 2 1 1 3 4 7 7 7 3 5 1 5 6 5 2 2 1 4 6 5 6 4 4 8 8 8 9 8 7 7 5 5 5 4 3 3 2 2 3 4 4 5 7 9 9 8 9 9 10 10 9 9 10 11 10 10 9 9 9 9 11 11 9 8 9 9 8 8 8 11 11 11 10 9 9 9 9 8 7 7 6 6 6 6 6
2 2 2 2 1 0 1 2 6 4 4 2 2 1 0 2 4 4 9 6 4 2 1 2 4 5 5 8 4 10 9 8 6 4 7 7 9 9 10 9 9 7 6 6 5 4 4 3 4 4 4 4 4 3 3 7 9 8 8 8 8 9 10 11 11 10 10 9 9 9 10 10 9 9 9 8 8 8 9 9 8 9 10 10 9 9 8 8 8 7 7 6 5 5 5 5 5
2 4 2 0 1 1 3 1 1 3 4 4 3 4 5 1 1 6 3 5 2 2 0 1 1 1 5 11 7 14 11 9 6 7 9 9 6 6 9 9 8 7 7 7 7 5 4 4 3 4 4 4 4 4 5 5 8 9 8 8 9 10 11 11 11 11 10 9 10 10 9 8 8 7 9 7 9 9 8 6 8 7 9 9 8 8 7 7 7 6 5 4 3 3 4 5 6
2 2 1 1 4 2 3 1 4 2 2 3 2 2 3 1 0 0 0 1 8 0 3 1 0 1 9 6 4 14 12 9 8 9 10 8 7 6 5 6 7 5 5 7 7 6 6 5 5 4 4 4 4 4 4 5 6 9 7 8 10 11 11 11 11 11 10 9 8 9 8 5 4 4 5 5 7 4 7 7 8 8 8 8 7 7 6 6 6 5 4 3 2 3 4 5 6
2 3 3 4 3 2 3 2 6 1 6 4 4 4 6 4 0 1 3 8 4 2 4 3 4 5 1 1 10 15 13 12 10 12 10 9 7 7 7 6 7 8 7 6 7 8 7 6 7 6 5 5 4 4 4 4 4 6 5 4 5 8 9 9 8 6 6 5 8 6 5 5 5 4 4 5 5 4 4 8 7 7 7 6 6 6 6 5 4 4 2 1 2 3 4 2 3
2 1 3 7 4 4 2 1 3 4 4 5 3 3 6 5 6 2 4 1 3 4 2 3 3 4 6 7 11 16 13 12 11 11 13 14 11 13 10 7 7 7 7 7 7 9 8 7 7 7 7 6 5 4 4 4 4 4 4 4 5 7 7 7 6 6 5 5 4 4 4 5 4 4 4 5 5 5 4 6 7 8 8 7 6 5 4 4 3 2 1 0 1 3 2 2 2
2 5 4 5 4 2 0 0 1 3 3 5 4 2 4 3 3 1 3 6 3 7 4 1 1 2 5 6 11 13 13 12 11 12 13 12 10 11 10 10 8 9 10 9 8 7 9 8 8 8 8 7 6 5 5 5 4 4 5 4 5 5 5 5 5 5 5 5 5 4 5 4 4 5 6 9 8 4 4 6 6 6 6 6 7 4 3 2 0 1 1 2 2 1 1 2 2
1 2 4 5 4 2 4 0 1 1 1 5 4 0 4 2 3 3 4 7 3 4 7 10 10 10 9 10 12 11 12 12 11 10 10 10 8 7 9 11 10 8 7 6 6 8 9 9 8 8 8 8 7 6 6 6 5 5 5 5 5 5 5 5 5 5 5 5 5 4 3 3 4 5 5 4 4 4 3 3 3 3 3 3 4 3 1 1 1 1 1 1 1 2 2 4 2
3 6 4 3 1 3 3 2 4 2 4 4 2 5 4 1 2 3 10 7 7 9 9 8 11 13 13 13 12 11 12 13 13 12 12 13 13 12 7 5 3 5 6 8 9 9 10 9 9 8 8 8 9 7 7 7 7 6 5 6 5 5 6 5 5 5 5 5 5 5 4 4 4 5 4 5 5 5 4 4 4 3 3 4 3 3 2 2 2 2 2 3 4 2 3 4 3
3 3 2 3 2 1 1 1 2 3 2 3 4 2 2 2 2 3 8 6 4 7 6 10 9 16 16 14 14 12 12 14 14 15 14 13 12 10 9 8 9 10 9 10 9 8 10 9 9 9 9 9 10 8 7 7 7 6 6 6 6 6 5 6 5 5 6 5 5 5 6 5 5 5 5 5 5 5 5 5 5 4 4 4 4 4 3 2 2 3 3 4 3 2 3 4 4
3 6 1 6 5 4 4 3 4 3 8 3 2 1 2 2 5 1 4 5 5 3 3 10 12 10 11 12 14 17 17 16 17 16 16 16 16 15 13 12 10 6 6 7 8 8 9 11 10 9 9 9 9 9 8 7 7 7 7 7 6 7 7 6 6 6 6 6 5 6 6 5 6 5 5 5 6 5 6 5 5 4 4 5 4 4 4 4 4 4 4 4 4 3 4 4 4
6 5 3 2 2 5 4 4 4 4 2 1 3 1 4 5 2 2 4 7 5 5 1 4 9 11 11 14 15 14 14 14 14 14 10 9 10 9 7 6 6 6 8 8 8 8 9 10 11 11 9 10 9 9 9 8 7 7 7 7 7 7 7 7 7 6 6 6 5 6 6 6 5 6 6 6 5 6 5 5 5 5 5 5 4 5 4 5 5 5 5 5 4 5 4 4 4
6 8 2 2 3 5 4 3 4 5 2 2 3 4 4 6 2 3 6 6 5 2 3 8 11 12 13 14 15 14 14 16 14 12 14 10 8 9 10 9 8 10 12 10 9 9 8 9 11 12 10 10 10 9 8 8 8 8 8 8 7 7 7 7 6 6 6 6 6 6 7 6 7 7 7 6 6 7 5 5 5 5 6 5 5 5 5 5 5 5 5 5 5 5 4 6 3
6 4 5 5 4 4 2 7 5 5 4 5 5 5 5 1 3 7 3 6 4 5 5 6 13 14 14 13 13 13 14 15 16 13 8 7 9 11 12 10 11 12 10 11 10 9 9 10 11 11 10 9 8 10 9 9 8 8 8 7 7 7 7 7 7 7 7 6 6 7 6 7 7 7 7 6 6 6 6 5 6 5 5 6 5 6 5 6 6 6 6 6 6 5 6 5 5
5 9 4 4 2 2 1 3 5 3 2 5 5 5 2 3 0 10 4 4 7 8 5 8 10 13 13 13 14 13 13 13 10 8 14 13 12 12 13 13 13 11 12 13 11 9 9 12 12 11 10 10 10 10 9 9 9 9 8 7 8 7 7 7 7 7 7 7 6 6 7 6 7 7 7 7 7 6 6 6 6 5 7 6 6 6 6 6 6 6 5 5 5 4 5 4 3
2 6 4 6 1 3 3 6 4 4 3 5 4 2 4 3 11 4 7 3 7 8 8 9 10 10 12 12 12 10 13 11 9 11 14 15 12 12 15 13 13 13 10 11 12 10 12 12 12 12 11 10 11 11 10 9 8 8 8 8 8 7 7 7 7 7 7 7 6 6 7 7 6 7 7 7 7 7 6 6 6 6 7 7 6 7 6 6 6 5 6 4 4 4 4 4 3
4 1 5 0 2 5 7 1 1 5 2 7 4 6 9 12 14 5 6 5 4 5 7 9 9 9 9 9 10 11 9 7 11 14 13 13 12 13 14 13 13 12 10 8 10 12 11 8 9 9 11 12 12 10 9 8 8 7 7 7 7 7 7 7 7 7 7 7 6 6 6 7 7 7 7 7 6 6 6 7 7 7 7 6 7 6 7 6 7 6 6 4 5 6 6 6 4
6 2 2 4 3 6 3 6 3 6 1 6 3 7 12 6 6 8 7 6 9 10 9 10 10 9 9 9 10 11 11 12 16 15 13 13 11 11 13 11 11 12 9 9 12 13 12 10 9 9 11 12 11 11 10 9 7 7 7 7 7 8 7 8 7 7 7 7 7 7 7 7 7 7 7 7 7 6 7 7 7 7 6 5 6 6 7 6 6 7 5 6 6 6 5 7 5
3 5 6 1 7 4 4 3 9 10 0 3 6 6 14 6 8 7 7 5 6 9 8 9 10 9 9 9 11 11 12 12 13 13 14 14 12 12 12 14 12 12 13 12 11 11 12 11 11 10 11 12 12 12 10 9 9 8 7 6 6 7 7 7 7 7 7 7 7 8 8 8 8 7 7 7 7 6 7 7 8 7 6 6 6 5 5 6 6 6 6 6 6 7 6 6 3
3 10 3 8 4 4 3 5 6 8 3 1 9 8 2 5 5 4 1 7 7 7 8 9 10 11 10 9 10 10 9 8 9 11 13 13 13 13 13 14 14 15 13 12 12 11 12 12 12 13 13 13 12 12 11 8 8 7 7 7 8 7 8 8 7 6 6 6 6 7 8 9 8 8 7 7 7 7 7 7 7 8 6 6 6 5 6 6 6 6 6 6 6 7 6 5 5
7 3 6 4 9 4 4 3 3 5 6 6 5 6 9 3 3 3 2 5 7 8 10 10 9 9 9 8 9 9 10 10 12 13 15 15 13 15 14 14 14 13 12 13 13 14 15 13 13 13 12 13 12 12 11 10 8 8 7 7 6 8 8 7 7 6 7 7 6 7 7 8 8 8 8 8 8 8 8 8 7 7 6 6 6 6 7 6 5 6 7 6 6 6 6 6 7
9 7 6 3 1 8 9 5 4 7 5 8 7 11 14 13 9 8 3 0 5 9 11 11 10 9 9 8 9 9 10 12 15 14 15 14 14 13 13 12 12 12 11 13 12 12 11 11 11 12 11 11 11 10 10 9 7 6 6 7 7 7 7 7 7 7 7 7 7 7 7 8 8 9 9 9 9 8 8 8 8 7 7 7 7 7 7 7 6 6 7 8 5 6 7 6 7
9 7 8 3 7 6 9 7 2 14 7 9 9 13 13 17 14 10 9 3 5 9 6 7 8 8 8 9 9 9 10 14 13 12 12 11 12 13 12 11 11 11 12 11 12 11 12 11 10 10 11 11 9 9 8 8 7 8 8 6 7 8 8 8 8 8 8 8 9 8 7 7 8 9 9 9 9 8 8 8 8 7 8 8 8 8 8 8 9 9 9 9 8 6 5 5 5
5 5 7 11 6 4 3 3 3 8 4 12 14 13 13 15 13 13 10 5 4 5 8 8 9 9 10 10 11 12 12 15 13 13 12 14 15 14 13 11 11 11 12 12 12 13 14 14 12 14 11 10 10 10 9 10 10 8 8 10 11 9 10 9 9 9 9 9 9 9 8 8 8 8 9 9 9 9 9 7 8 8 8 8 9 10 10 10 10 10 9 7 8 7 6 5 5
8 8 8 10 6 9 4 5 3 5 6 7 9 8 13 15 13 11 6 3 9 10 10 11 11 10 10 11 12 12 14 7 5 6 8 7 9 10 10 10 11 13 13 14 15 17 15 12 13 13 10 12 13 13 11 11 11 11 11 12 10 9 9 9 10 9 9 8 8 9 9 9 10 9 9 9 10 10 10 9 9 9 9 9 10 9 9 9 9 8 6 5 5 8 7 7 6
2 5 7 5 7 2 5 2 1 6 5 8 1 8 14 14 14 11 7 9 8 9 12 14 13 13 11 11 11 12 8 10 8 11 9 10 12 12 12 12 13 16 16 16 16 14 12 13 13 12 12 12 12 12 11 12 11 10 11 8 10 7 6 7 7 6 6 8 8 9 10 10 11 11 10 10 10 10 10 10 10 10 10 9 8 9 9 10 9 11 10 10 6 4 6 4 6
3 2 4 10 4 7 5 3 0 4 7 1 3 4 9 8 9 14 12 9 9 11 12 14 13 14 14 14 14 13 11 11 11 13 13 12 12 12 11 12 13 13 12 12 13 15 13 13 13 13 13 12 11 13 13 12 11 9 8 6 6 8 6 5 6 6 7 8 11 11 10 11 11 11 10 11 10 10 10 11 9 9 9 9 10 10 10 11 10 10 10 10 8 7 5 8 7
7 6 4 3 5 5 5 3 0 1 1 1 1 6 9 7 9 10 9 8 9 13 9 11 12 11 12 10 9 10 14 14 14 13 12 11 11 13 15 14 12 12 13 14 14 14 12 16 16 14 12 13 12 12 13 10 7 6 5 3 3 3 0 5 6 8 10 11 10 10 14 10 10 11 11 11 11 11 10 10 9 9 9 8 8 9 10 11 11 11 11 10 11 11 9 5 5
8 10 9 4 2 4 4 1 4 1 4 3 2 3 8 4 11 15 9 1 10 8 10 16 13 11 11 12 14 12 11 11 15 16 16 14 14 13 12 12 12 13 14 14 14 15 14 13 13 12 11 11 13 13 12 10 10 10 9 9 8 8 10 9 12 15 13 12 14 10 7 10 11 10 10 10 11 10 10 10 10 9 9 9 9 10 10 8 10 11 11 11 12 11 10 7 6
10 12 14 8 3 2 4 5 5 4 6 3 2 10 9 2 4 5 7 6 12 5 9 14 12 11 10 13 14 14 14 13 11 11 11 11 12 12 13 14 15 15 15 13 12 13 13 12 12 13 13 12 12 11 12 10 10 10 13 14 12 12 12 12 11 8 9 9 7 8 9 8 10 11 11 11 11 11 11 10 11 11 10 10 9 9 10 11 10 11 9 10 11 10 9 9 10
10 4 14 11 4 2 4 7 9 3 2 3 1 3 6 12 10 5 4 4 7 8 11 11 11 11 13 14 14 14 14 15 14 15 14 13 13 15 17 16 14 16 14 12 12 12 14 14 13 14 12 11 10 10 12 13 13 12 12 13 12 13 14 14 10 9 7 6 8 10 8 9 9 10 11 10 10 10 10 10 10 10 10 10 9 10 11 9 8 7 9 10 9 9 11 11 9
3 6 12 11 8 3 3 2 3 0 0 7 2 0 1 8 7 2 0 5 9 14 14 11 11 13 14 13 14 15 18 17 15 13 14 15 15 14 14 14 15 14 13 13 13 13 14 14 14 12 12 11 10 12 13 14 13 13 13 12 13 13 12 11 5 5 8 6 9 8 9 9 8 9 10 9 10 10 10 10 9 9 9 9 7 8 8 8 10 9 8 9 10 9 9 9 8
1 7 7 7 7 5 3 2 1 2 1 11 7 5 5 12 5 3 1 1 12 17 13 11 12 13 13 13 14 16 15 12 11 14 14 14 13 13 13 13 12 14 13 13 13 12 12 11 12 12 13 11 11 13 14 14 14 12 12 13 16 14 10 8 6 7 7 7 10 10 8 8 8 8 8 9 9 10 10 9 9 10 10 9 8 9 9 10 9 9 9 9 9 10 8 8 11
6 9 10 6 5 3 4 4 1 1 5 11 8 9 5 8 7 11 8 12 14 8 6 8 8 11 14 14 15 14 13 11 10 10 11 11 10 9 7 11 13 10 9 9 10 10 9 10 12 13 15 13 12 13 14 15 14 13 14 15 16 15 12 10 9 10 7 7 10 9 9 8 7 9 8 9 10 10 10 9 10 10 9 9 9 9 10 11 10 10 9 9 10 12 10 10 10
12 3 7 9 4 5 4 2 1 3 9 0 7 9 7 10 4 4 10 5 5 10 11 9 9 12 13 11 12 13 12 10 9 8 11 10 6 6 6 8 7 8 7 8 7 6 8 9 10 13 12 12 11 12 13 14 13 14 14 14 15 15 11 11 13 13 11 11 10 9 7 6 7 7 8 8 9 9 9 9 9 9 10 10 10 9 9 8 9 9 10 10 10 12 12 11 11
6 8 12 11 4 4 4 1 6 12 7 0 1 5 2 21 4 5 4 13 14 9 10 11 10 10 10 9 11 11 9 7 8 9 9 7 9 10 9 10 7 7 10 9 9 9 9 9 11 13 14 12 12 11 13 14 13 14 15 15 14 11 11 13 13 12 11 11 9 7 6 8 6 8 8 9 9 9 9 10 9 10 10 10 11 11 11 10 8 8 10 12 11 11 10 11 10
12 14 14 13 8 8 10 6 2 3 2 2 4 3 9 5 6 13 20 22 18 13 13 9 8 10 10 9 7 7 8 8 9 9 9 9 11 10 10 10 10 10 10 11 10 10 10 10 11 13 15 12 12 11 13 12 14 15 14 13 13 11 12 13 12 12 10 8 7 9 9 8 8 10 8 9 8 9 9 9 10 10 10 10 10 11 11 11 9 7 7 8 10 11 11 12 12
19 11 14 10 10 6 12 6 12 8 5 1 3 3 9 7 5 4 16 12 5 5 6 7 9 10 8 6 7 8 6 7 7 7 9 10 11 9 9 10 10 10 10 10 9 11 10 11 11 13 13 11 11 13 12 14 14 14 13 13 12 11 12 11 11 9 8 8 7 8 8 6 8 8 9 8 8 9 10 10 10 11 11 11 11 10 10 10 11 11 11 10 8 6 7 9 12
7 3 5 3 9 4 5 4 1 2 2 1 3 9 2 6 4 9 9 9 12 8 8 7 9 8 6 6 6 7 7 7 6 7 8 8 7 6 6 6 8 8 9 9 10 10 11 12 12 14 16 14 14 14 13 14 14 12 11 12 13 12 9 8 8 7 6 7 7 9 9 8 8 7 7 6 8 9 10 11 11 12 12 12 11 11 11 9 9 10 9 9 12 11 13 15 12
8 7 13 7 5 9 6 4 2 5 3 10 3 8 8 7 11 15 17 14 12 8 8 6 9 8 6 7 6 7 7 6 5 7 8 8 5 6 7 8 7 7 6 9 11 11 13 13 12 14 13 8 9 10 12 11 11 10 12 12 10 9 10 10 10 8 8 7 8 8 8 8 7 7 7 7 8 9 10 10 11 11 12 11 11 10 11 10 9 9 11 12 10 6 7 10 10
7 10 8 4 2 5 6 5 1 0 5 7 5 15 5 1 12 1 10 15 21 9 7 6 6 5 7 8 7 8 8 7 5 5 4 4 5 6 6 6 7 9 11 10 12 10 10 9 9 10 8 9 9 10 11 10 10 11 10 9 9 9 9 9 9 9 7 7 7 6 6 7 8 8 8 8 8 9 9 10 10 10 10 10 11 10 10 11 11 9 9 10 11 11 10 6 5
13 12 7 13 4 8 1 3 6 4 6 5 5 5 5 11 11 1 3 13 18 15 7 6 7 6 8 8 10 9 6 4 4 5 5 5 5 6 6 8 6 6 6 6 4 4 5 5 6 8 12 12 10 9 7 7 7 8 7 8 8 8 8 8 7 7 6 7 8 7 8 9 7 7 7 7 7 7 8 8 9 9 9 9 10 10 9 9 9 9 8 8 8 8 10 12 9
2 8 9 2 3 8 12 11 2 3 5 1 8 3 11 11 7 9 11 8 11 12 6 10 10 8 9 10 10 10 8 7 6 5 5 6 6 7 7 7 7 7 6 5 5 5 7 8 7 8 5 4 5 8 7 8 7 7 7 6 7 7 7 7 6 7 7 8 8 8 8 7 8 6 7 7 7 8 7 7 7 8 9 9 9 10 10 10 8 9 8 5 6 9 11 12 11
6 11 12 5 2 2 4 2 5 5 4 5 2 6 9 6 9 13 17 17 16 13 12 8 9 9 10 10 11 9 8 7 7 6 7 8 8 6 5 4 4 3 3 4 6 9 8 6 7 7 10 8 9 8 7 8 7 8 7 8 7 6 6 5 6 7 8 8 7 7 7 7 5 6 6 6 7 8 8 8 9 9 10 10 9 9 8 8 7 8 9 9 8 8 9 10 10
17 18 19 18 13 9 12 10 1 3 2 6 5 14 9 4 6 13 16 17 17 13 9 8 7 9 10 10 9 7 6 7 7 8 7 7 6 5 4 1 1 4 5 5 6 5 6 8 9 8 7 8 9 8 8 7 6 6 7 6 6 5 6 6 7 7 7 7 6 6 7 4 6 7 6 7 7 7 6 7 8 8 9 9 9 9 8 8 9 8 5 5 7 9 9 8 6
Wind_Direction
344 343 311 310 68 113 69 3 92 312 64 256 348 24 204 53 231 65 27 335 53 304 306 33 49 36 104 146 130 126 35 152 223 133 209 229 125 129 129 130 124 129 136 141 136 135 144 139 125 125 127 127 128 125 120 120 118 117 113 110 113 112 110 113 117 112 112 111 112 111 110 109 108 108 106 104 103 103 102 102 99 94 92 89 86 83 82 81 80 80 78 75 74 70 66 61 58
336 336 314 307 200 101 288 110 100 355 42 58 198 90 250 306 54 133 125 125 191 123 180 92 83 90 96 118 133 117 36 15 230 187 323 95 112 118 140 136 139 139 136 140 137 138 147 129 125 128 128 131 131 124 123 124 121 122 123 119 119 124 121 115 108 111 116 115 108 103 106 109 108 105 105 107 107 112 115 107 101 99 96 93 90 87 86 84 82 81 80 78 75 72 67 62 60
339 359 342 27 27 67 51 41 27 77 86 86 276 198 327 65 130 232 200 137 168 139 123 105 103 88 104 142 38 60 228 293 37 30 101 152 119 166 145 138 139 139 137 138 139 140 134 133 133 131 128 130 129 125 124 121 124 130 120 112 115 116 116 117 117 118 118 114 115 115 115 113 115 112 109 105 101 96 96 100 98 94 93 90 89 88 86 85 83 81 80 79 78 75 71 67 65
5 73 62 49 323 30 57 24 89 123 115 197 78 287 186 147 179 179 211 191 185 174 178 44 56 299 111 62 116 83 71 76 3 138 135 186 171 147 144 136 136 137 132 136 139 139 137 141 140 137 134 132 129 125 124 121 124 121 117 124 123 119 121 121 119 128 124 116 111 112 118 116 115 115 112 110 106 105 104 97 96 96 94 96 95 91 88 86 84 82 81 79 79 78 74 71 70
2 337 85 99 100 356 88 107 132 91 142 197 159 265 215 176 159 197 240 261 326 102 75 136 78 357 69 117 130 142 206 84 143 129 134 109 124 142 140 135 137 140 139 140 137 142 144 145 139 138 141 140 136 135 136 136 129 120 122 126 125 128 127 126 125 128 122 118 120 121 114 117 120 115 113 112 111 107 102 99 100 100 101 99 98 94 90 87 85 84 82 81 81 80 76 72 72
55 47 34 80 32 178 49 32 347 37 216 153 128 200 206 203 157 187 175 290 353 35 122 63 144 157 29 336 158 129 160 140 186 107 135 153 144 142 145 139 137 143 142 139 142 142 149 143 143 146 142 139 140 144 142 139 134 129 127 130 132 135 128 125 122 127 132 129 121 119 112 110 114 116 115 114 111 108 108 106 105 105 107 106 102 96 91 89 88 86 84 85 85 82 77 73 71
320 36 355 24 360 53 164 132 255 193 288 157 170 171 187 204 185 133 133 85 339 46 15 117 111 97 81 299 21 27 258 176 113 179 133 151 139 143 146 142 140 142 144 145 143 144 150 149 150 148 144 142 145 147 146 139 137 135 132 135 130 127 124 124 131 136 131 119 121 123 120 114 116 118 118 116 113 110 108 106 105 106 106 104 99 93 92 92 92 90 88 87 88 84 79 74 71
22 79 334 89 272 43 23 186 250 159 322 169 191 150 193 186 178 118 145 98 177 94 49 138 151 95 259 29 157 268 353 226 137 120 123 136 142 145 146 146 140 145 147 149 150 149 151 152 153 155 148 145 148 151 147 142 139 141 141 144 130 129 130 130 131 132 129 124 119 120 123 116 118 119 119 118 114 112 109 107 106 103 103 99 96 96 95 95 94 92 91 89 88 85 81 78 74
351 73 38 66 24 30 50 287 280 256 312 76 159 217 175 175 172 123 110 225 68 110 106 137 153 88 229 57 68 281 326 82 111 125 130 141 143 146 148 147 144 147 151 153 155 156 150 158 158 159 149 148 150 153 150 144 144 147 146 146 138 132 135 134 129 130 132 131 129 125 126 124 122 122 123 120 117 113 113 112 111 111 109 105 102 99 98 96 94 92 89 88 87 85 82 79 75
24 70 308 126 136 327 339 309 87 182 177 221 161 178 177 190 162 120 139 104 179 106 19 48 102 113 131 103 95 341 114 129 123 121 139 145 138 142 144 147 144 147 154 155 159 154 156 158 160 158 151 155 154 153 154 151 149 150 153 144 142 143 139 137 134 140 139 138 137 133 132 130 127 127 126 122 119 119 116 116 116 118 114 111 107 107 104 100 97 93 90 87 83 80 80 76 72
351 10 153 55 20 41 8 301 274 332 146 204 260 181 186 170 128 127 134 143 79 133 172 126 49 118 107 98 222 261 93 141 135 150 156 144 127 137 138 143 144 149 155 159 156 152 159 154 159 159 158 156 153 155 155 157 156 157 155 149 150 147 142 141 143 145 145 144 145 136 137 138 134 132 129 124 124 124 122 120 119 119 118 112 112 108 104 102 99 95 91 87 84 82 79 76 72
6 8 10 106 223 160 237 206 313 285 300 187 181 225 226 141 109 102 110 119 219 123 164 116 178 141 66 93 267 65 111 150 152 151 149 125 123 135 133 133 140 147 151 152 145 140 136 149 151 159 152 152 153 157 160 161 161 163 149 154 152 149 148 149 147 148 146 143 148 130 126 134 136 134 128 123 118 124 124 122 122 123 121 120 116 113 112 108 105 100 96 90 86 84 82 76 72
117 106 78 98 236 141 237 72 229 237 328 242 182 217 146 123 158 161 165 125 146 117 322 234 136 81 99 183 272 74 156 185 163 151 138 119 127 131 130 134 142 141 146 143 138 134 125 115 120 125 139 140 146 154 165 168 160 151 149 152 148 152 155 152 152 150 143 133 120 111 104 108 123 125 115 117 123 127 126 122 125 126 126 124 120 118 114 109 103 101 97 91 85 79 77 73 65
115 171 127 262 100 198 177 218 60 163 263 242 248 256 226 131 211 158 126 120 213 147 233 143 131 122 86 77 189 203 202 192 177 136 115 118 126 130 130 133 137 140 145 146 147 144 136 127 107 91 119 121 131 147 153 152 146 145 144 140 145 151 143 126 114 113 111 109 108 104 101 98 107 110 108 111 121 117 111 118 120 124 123 119 118 115 112 107 104 100 98 92 84 74 68 64 54
131 141 83 118 281 39 251 112 202 173 232 194 243 145 45 14 116 156 149 134 231 223 173 91 174 118 221 159 224 200 192 187 166 124 103 109 125 132 133 135 140 146 148 150 151 150 159 154 153 152 149 136 137 140 144 150 148 147 146 144 141 139 122 120 126 120 123 120 116 109 105 104 101 104 109 109 108 112 110 108 115 121 125 119 121 120 113 109 106 101 98 96 86 75 64 51 39
152 83 81 82 264 154 274 182 94 136 245 182 262 138 82 340 148 132 255 144 159 2 41 160 3 228 166 171 205 179 171 173 147 117 111 110 117 129 136 142 146 157 161 158 161 170 167 164 170 169 164 156 155 155 154 155 153 150 150 143 141 134 131 132 131 131 128 125 121 116 111 106 101 102 107 111 117 114 112 117 117 126 132 128 125 125 121 114 113 111 107 104 93 71 47 30 11
33 78 260 54 267 156 257 123 136 198 246 233 261 169 139 182 275 41 4 103 118 348 42 335 277 4 164 200 183 144 159 152 123 123 117 123 131 136 137 141 144 159 166 171 166 175 175 174 179 178 177 166 161 160 161 159 165 157 153 146 142 141 139 139 137 135 131 130 126 125 117 111 112 107 103 111 108 116 125 126 125 129 137 136 134 131 127 124 122 121 118 102 79 48 29 17 11
67 164 141 233 196 163 221 199 189 221 147 226 201 195 120 143 218 175 71 44 76 48 60 323 13 18 275 282 139 142 154 145 145 138 146 147 151 152 161 169 160 171 175 179 184 176 179 185 182 183 180 174 166 161 163 163 165 158 151 149 146 146 143 138 138 142 143 140 137 134 130 131 126 122 121 116 114 108 118 120 122 123 121 118 133 137 132 130 130 131 125 111 50 36 18 16 4
126 94 140 222 180 233 179 226 236 140 223 174 194 153 153 194 138 208 104 168 116 68 1 15 36 12 51 103 131 144 156 152 155 156 160 164 169 168 171 171 179 165 179 179 193 186 185 185 186 186 181 176 169 165 165 165 165 159 156 156 152 152 152 147 152 149 149 151 154 150 145 143 138 135 133 131 124 112 117 122 121 126 132 138 141 137 135 140 147 149 149 233 38 24 5 342 340
227 124 211 232 213 242 152 171 237 255 167 149 149 219 162 190 152 145 152 164 137 157 157 345 144 154 134 132 142 153 163 162 163 163 171 175 177 170 170 177 184 183 179 182 183 193 186 188 189 188 185 174 168 172 166 169 170 167 165 162 158 158 158 159 157 159 158 161 162 160 155 153 147 142 142 129 122 118 97 84 94 107 124 141 134 122 114 87 360 350 4 2 354 336 328 302 307
250 108 191 222 217 188 239 9 285 25 13 149 152 125 130 215 199 145 149 111 249 251 213 163 195 173 165 161 157 161 168 170 171 170 175 179 187 189 187 185 184 178 175 173 179 194 192 187 187 191 187 177 174 173 171 178 176 171 175 170 167 164 167 168 169 166 169 171 168 161 161 157 151 147 145 143 138 139 142 145 142 148 142 134 131 145 122 262 308 292 330 311 252 257 271 268 272
117 210 190 189 135 187 234 228 121 101 91 108 123 122 191 88 91 122 150 158 211 211 215 214 172 162 157 166 172 167 174 177 181 179 184 184 186 190 186 184 186 180 164 184 190 189 193 190 186 189 188 184 181 176 179 179 174 178 180 179 171 176 171 176 179 178 177 178 170 166 158 156 155 157 162 162 159 159 160 169 176 171 169 170 175 171 196 210 249 242 238 260 250 215 235 258 260
219 292 239 229 210 161 235 211 187 122 98 129 151 206 77 144 189 178 168 179 237 221 197 185 167 171 173 162 159 173 178 185 186 190 188 190 194 194 190 186 182 190 189 195 184 188 188 192 188 185 188 187 186 179 179 177 185 182 178 181 174 185 178 177 188 186 187 183 175 168 162 166 167 176 176 178 178 175 174 180 184 183 176 174 188 182 198 210 206 231 234 240 248 224 243 247 249
182 229 198 225 222 219 186 196 137 114 128 184 210 54 181 163 172 175 177 240 223 255 218 175 174 153 142 157 178 177 183 186 194 196 193 195 192 193 189 186 196 196 191 193 192 189 185 192 186 184 188 187 188 183 182 185 185 181 185 181 188 183 178 186 188 192 190 190 183 176 176 169 173 180 190 188 192 185 184 190 184 184 193 198 188 193 198 209 218 225 233 245 249 237 240 235 228
199 245 206 262 185 230 210 178 157 139 164 130 92 139 235 185 188 109 238 235 235 257 81 144 140 149 165 169 180 187 189 195 196 199 203 206 201 194 198 198 191 191 201 198 194 193 193 187 187 188 188 190 187 183 189 187 186 186 185 187 192 185 187 189 188 191 195 196 194 183 178 178 181 184 189 199 184 193 192 186 188 199 199 207 184 210 205 208 219 221 227 230 228 238 224 247 250
214 213 163 203 201 231 200 167 176 160 149 147 129 234 269 247 280 238 229 244 220 163 91 145 151 157 173 184 185 186 193 197 199 197 202 199 192 190 204 201 191 196 204 198 192 198 194 187 189 191 187 190 186 183 191 188 189 190 193 193 193 186 195 191 187 194 202 193 199 192 189 184 186 188 193 196 187 196 194 190 192 205 208 206 190 208 212 206 213 218 231 232 226 232 221 234 227
185 202 208 202 227 184 224 184 207 192 175 184 182 225 247 301 160 267 261 231 109 113 133 156 157 175 183 184 191 196 194 200 198 198 193 198 201 201 205 203 202 204 197 200 200 197 191 192 197 191 187 182 183 189 189 193 190 194 195 195 192 193 195 192 193 198 205 202 199 191 191 190 185 189 192 191 203 194 193 191 202 205 215 213 202 212 206 211 213 210 214 216 222 217 225 229 201
164 195 210 245 313 253 233 220 210 137 240 185 176 234 270 292 207 226 209 222 155 144 162 171 178 182 189 191 191 198 202 206 199 180 197 195 203 202 204 201 205 202 197 202 199 194 188 196 199 195 187 180 183 192 187 191 192 193 194 193 198 196 191 196 199 200 207 209 200 196 191 192 187 190 192 193 196 194 195 199 204 196 217 215 205 211 204 214 212 218 222 220 221 205 222 229 216
205 159 183 249 310 259 226 199 216 165 240 154 149 331 282 201 232 191 214 155 168 167 173 184 192 196 195 195 196 196 207 201 192 200 206 204 203 203 206 204 200 203 206 198 196 193 196 194 197 198 192 184 187 191 189 194 192 189 188 196 197 193 195 196 199 201 205 211 205 201 196 191 193 190 195 195 196 195 194 202 206 209 214 210 206 211 208 209 213 220 231 221 222 217 204 222 205
93 101 145 13 264 265 239 231 249 162 241 160 133 270 243 234 238 216 223 172 156 169 184 193 200 197 202 200 200 206 208 196 204 209 207 207 204 203 209 205 201 203 201 197 192 200 198 196 195 195 197 195 194 191 190 192 196 193 187 191 192 190 195 199 203 197 202 207 209 204 202 196 193 196 189 200 197 193 196 199 203 213 214 207 202 201 205 204 205 204 220 194 215 200 212 230 211
184 211 110 189 143 253 271 180 161 169 188 178 115 235 265 245 260 242 228 188 169 194 197 199 203 201 200 202 204 208 211 204 208 209 210 210 208 208 213 208 202 204 199 197 198 198 194 195 192 198 195 201 197 198 193 195 196 195 190 187 189 189 192 199 201 197 200 206 206 212 204 202 198 193 192 191 201 199 198 204 208 214 208 201 196 202 201 205 196 206 194 196 209 219 223 228 213
172 124 217 230 185 280 294 224 162 187 249 206 110 255 256 272 258 245 224 186 185 204 202 203 206 205 202 202 207 210 213 212 218 214 211 210 206 208 207 211 203 200 202 199 198 193 197 197 194 196 192 199 199 201 199 197 197 198 197 193 189 193 195 200 199 197 198 204 205 212 210 204 202 198 190 189 195 203 204 209 214 215 211 200 204 205 205 206 204 208 210 193 201 229 223 242 221
243 199 179 203 174 233 347 226 205 189 124 270 183 232 341 300 273 274 237 182 192 206 216 210 209 212 207 205 208 212 217 226 229 223 218 210 210 208 207 208 206 204 201 195 195 193 197 198 196 198 194 196 197 198 198 197 190 197 199 198 197 193 201 207 205 196 197 200 205 209 211 209 205 201 195 189 192 201 209 214 218 213 207 203 207 208 209 213 200 205 215 219 204 219 217 236 244
211 185 193 205 189 169 237 303 224 213 154 207 251 248 241 235 278 307 340 181 186 216 224 222 216 215 215 213 211 212 215 216 219 219 219 210 210 208 208 206 207 204 202 200 197 193 196 194 197 199 195 194 194 195 196 196 193 191 195 200 197 200 207 209 209 200 206 206 202 210 208 209 210 205 196 194 197 202 204 211 218 212 202 203 207 206 215 212 210 199 215 221 215 212 220 223 237
175 180 191 241 196 188 205 168 236 148 220 198 219 236 249 256 260 282 277 139 198 214 219 222 220 218 219 218 217 218 216 216 223 220 217 212 212 211 209 206 205 203 203 200 200 199 195 198 198 200 195 192 194 192 194 196 190 191 191 194 202 209 210 211 204 207 210 209 210 208 207 209 210 209 203 196 201 201 206 211 215 210 198 201 204 209 215 214 211 212 210 225 224 218 211 213 220
186 171 201 173 186 216 213 221 221 167 193 224 211 224 240 251 258 260 269 227 193 235 244 242 234 229 226 220 220 220 221 225 226 222 216 210 210 207 206 205 204 203 204 199 199 198 199 198 198 196 197 190 187 190 185 190 187 189 195 202 213 213 212 209 209 209 207 213 214 208 208 211 211 210 209 205 204 204 207 209 211 209 204 198 203 206 212 207 208 210 219 216 219 235 244 236 227
139 182 198 215 200 260 280 250 221 194 153 218 218 229 239 250 247 251 245 247 247 259 254 244 237 232 229 227 223 222 221 225 221 215 210 207 207 205 203 197 200 201 205 202 198 202 202 198 188 199 194 184 184 186 187 186 191 197 205 205 211 206 208 209 211 210 210 213 211 211 211 213 213 213 214 209 210 210 212 209 208 213 206 204 205 211 208 209 209 208 213 208 210 221 242 228 236
172 191 205 220 192 225 223 208 218 202 172 250 229 239 246 249 256 254 257 221 243 234 241 243 238 234 233 227 228 226 229 242 250 249 235 225 218 210 200 197 193 195 207 202 202 204 204 197 196 199 185 190 192 190 186 191 195 196 195 206 206 204 204 205 214 210 212 212 211 212 214 215 213 212 210 210 211 210 211 211 211 211 205 209 212 212 211 211 209 212 200 216 216 208 225 207 209
144 185 211 229 232 240 286 249 245 196 179 262 125 231 248 251 257 261 240 230 237 225 224 232 228 232 234 234 231 232 233 234 226 230 221 213 211 208 200 200 200 201 201 201 206 203 200 201 205 195 194 192 195 191 186 196 197 200 197 201 198 207 215 212 216 207 202 211 213 213 214 215 215 216 210 209 211 213 215 214 217 215 213 209 212 216 212 212 209 210 203 205 212 227 227 220 193
185 164 174 223 158 166 253 278 37 186 171 238 166 230 266 275 270 260 246 221 235 237 229 234 228 230 228 229 225 226 227 229 228 224 220 212 208 208 203 203 204 203 203 203 202 202 202 205 204 199 198 195 193 195 197 198 196 196 203 189 194 193 195 198 203 204 205 210 220 213 216 214 213 217 213 212 215 216 215 218 219 218 219 213 215 217 214 216 210 213 209 212 197 213 213 230 199
207 188 230 214 191 212 168 234 94 327 288 80 10 311 283 228 258 269 255 219 238 246 249 248 246 241 240 243 247 233 228 221 226 230 229 216 208 210 206 205 200 201 204 202 200 201 203 204 202 198 196 197 197 195 197 189 178 177 169 127 137 182 174 180 195 220 213 214 219 215 220 209 212 214 213 212 212 217 216 218 218 220 219 217 216 222 221 218 213 211 208 206 204 210 217 218 218
212 223 201 202 172 205 226 133 119 45 271 238 121 320 273 248 233 243 258 186 235 235 238 245 239 238 241 244 241 241 241 232 225 225 222 214 209 212 210 206 200 205 206 205 202 204 203 205 198 195 197 197 200 197 190 183 186 183 176 182 190 198 210 201 208 213 208 209 215 218 216 208 212 215 213 212 213 213 217 215 217 217 219 218 214 221 226 222 220 215 211 209 214 214 214 203 221
193 220 188 203 233 175 162 175 125 203 207 282 151 202 270 322 270 251 249 244 255 277 245 252 246 239 233 238 238 236 233 236 240 242 235 221 215 208 208 204 203 204 208 201 202 204 206 204 198 195 197 200 198 193 185 185 188 194 195 199 203 205 213 222 222 222 217 221 219 215 215 207 210 212 214 211 211 211 215 214 213 216 218 219 215 219 224 222 220 218 211 214 216 212 207 218 210
218 124 159 198 180 133 195 172 184 210 254 318 69 151 238 281 258 222 229 230 256 262 254 246 245 240 234 233 234 235 235 232 227 226 227 223 212 203 207 207 203 207 203 198 200 199 201 204 198 199 199 198 194 188 186 190 194 195 199 206 208 214 215 225 212 221 220 208 212 219 213 214 209 212 214 213 213 212 213 218 215 217 219 222 217 223 228 227 229 226 216 218 219 213 208 216 214
216 150 155 181 162 167 183 180 181 300 13 276 228 45 238 247 271 316 27 248 262 254 247 245 237 237 238 236 233 232 232 229 221 221 223 221 215 212 211 206 207 204 200 199 198 198 200 202 201 198 198 194 193 189 190 195 198 196 200 203 214 222 223 230 213 214 217 211 223 218 218 219 216 216 217 215 214 214 212 217 218 221 223 226 222 235 236 232 229 226 219 216 218 220 216 220 217
218 122 84 89 79 70 80 127 107 328 56 243 185 184 210 271 228 233 358 236 252 246 241 242 243 243 242 240 238 236 236 234 226 224 223 222 220 215 208 208 203 205 202 201 201 198 200 196 196 194 202 196 193 193 193 196 197 195 201 207 214 221 217 224 203 217 215 205 225 223 221 220 219 221 221 223 221 217 217 215 220 224 227 228 225 233 236 236 234 232 228 223 220 223 216 215 220
119 105 107 66 45 69 54 61 93 45 260 245 171 201 170 286 229 206 179 223 233 265 252 237 239 244 248 243 240 242 240 231 224 224 229 228 223 218 204 208 210 206 205 202 204 201 196 193 194 198 204 200 193 194 192 197 196 197 206 209 214 219 212 210 215 224 212 210 222 222 218 220 216 221 218 224 225 223 223 218 219 224 228 230 231 234 235 235 233 232 230 227 222 221 220 220 222
126 110 110 83 23 18 36 357 32 188 249 196 182 161 173 221 284 229 221 240 205 212 245 240 237 237 240 241 243 245 242 233 222 216 228 229 225 223 208 224 219 210 200 204 202 194 195 196 194 202 208 203 197 196 195 200 197 204 211 211 215 218 207 209 216 222 212 217 218 220 214 217 222 220 221 224 225 220 226 227 224 225 228 231 236 240 246 242 236 227 224 223 227 224 226 221 218
136 125 135 153 171 149 221 104 209 213 223 154 55 142 93 236 242 280 239 236 241 229 229 230 229 244 244 247 246 245 243 234 220 217 220 216 211 210 208 218 204 203 204 201 197 190 193 195 196 200 209 203 202 197 198 201 200 208 210 213 219 213 211 215 219 223 215 218 215 218 208 219 215 222 219 223 224 214 219 226 224 225 229 229 234 235 241 245 245 235 226 220 220 226 225 219 219
175 168 168 172 157 190 203 191 343 335 295 292 115 86 257 284 287 224 254 252 239 232 234 233 234 240 245 249 257 254 241 224 219 214 212 210 209 209 207 207 202 203 202 199 195 193 195 197 199 202 212 200 201 198 202 200 207 212 211 214 217 209 215 215 219 221 215 215 209 216 215 215 216 221 217 220 214 216 219 220 221 224 227 229 229 231 234 237 246 249 242 241 232 221 212 217 226
193 185 181 185 172 174 197 161 202 211 195 227 279 85 237 147 251 238 239 262 305 275 249 229 230 242 254 276 281 277 260 237 221 213 211 211 212 204 202 202 203 204 202 199 196 200 195 201 200 206 213 205 199 203 202 205 210 211 211 214 215 210 217 215 222 220 210 208 209 213 218 213 219 220 217 219 208 211 217 219 219 223 224 227 228 229 227 228 231 241 250 250 242 228 233 227 220
208 184 58 174 210 133 179 193 143 131 141 266 211 208 193 191 269 288 242 265 276 265 256 257 251 240 247 265 262 250 242 235 215 216 223 227 217 208 208 207 207 204 203 201 200 198 198 204 201 206 209 205 200 203 205 207 212 208 209 212 215 213 216 216 223 214 213 201 205 209 217 214 217 218 216 207 209 207 213 216 217 220 223 225 225 224 223 222 221 225 234 240 243 234 223 214 219
179 150 204 195 93 98 101 55 69 85 49 247 149 295 276 307 284 258 284 283 260 246 260 233 248 245 231 234 240 248 239 232 219 217 220 222 219 219 211 209 208 204 199 202 203 199 201 202 203 209 214 209 204 206 208 209 212 207 212 213 211 208 210 213 216 211 206 203 207 210 213 216 216 212 215 208 210 210 214 214 218 220 221 223 224 222 222 222 222 223 227 237 253 255 252 246 232
130 196 189 90 96 105 124 173 8 122 191 260 157 228 265 60 274 286 230 242 256 238 239 251 244 244 232 229 230 235 230 226 228 237 241 229 215 212 214 218 209 202 201 204 209 205 207 206 202 204 201 199 203 200 206 205 205 209 213 211 211 206 209 214 212 214 202 203 213 214 215 222 217 215 212 212 208 211 214 215 219 222 221 221 222 224 222 222 219 222 224 229 230 237 246 244 239
181 184 163 159 207 207 249 125 218 174 225 257 267 252 265 207 237 319 185 229 255 257 234 261 262 239 233 235 236 241 254 275 261 237 232 231 219 218 214 215 217 218 219 216 208 183 191 198 199 197 202 205 199 196 198 203 202 207 204 205 201 204 206 209 210 207 195 204 210 209 213 219 220 215 214 215 214 214 213 215 217 221 221 222 223 226 228 231 224 224 222 232 238 246 248 248 239
28 97 180 200 114 216 171 199 165 122 242 326 282 72 244 189 210 177 255 245 238 254 239 227 232 222 217 229 232 226 221 227 232 238 238 232 229 223 215 215 215 216 213 206 184 179 196 199 192 206 209 193 188 196 193 200 202 197 204 199 208 204 201 198 194 191 199 206 209 206 213 216 217 208 212 211 212 214 211 214 215 218 222 223 223 224 222 219 216 219 215 234 252 242 239 237 237
150 174 184 211 145 282 114 43 140 169 176 203 269 297 258 248 193 179 217 232 243 233 233 223 221 221 219 221 223 222 212 214 222 225 227 228 231 235 239 236 232 221 202 186 186 196 199 185 202 196 194 197 200 201 191 206 191 205 197 201 199 193 197 192 189 194 199 207 207 207 210 215 203 215 204 206 210 212 211 212 212 212 215 217 219 223 218 216 219 229 223 224 238 243 246 242 226
184 186 192 184 156 136 169 227 78 115 128 230 179 253 265 263 182 198 207 221 227 235 223 232 212 219 221 225 229 211 204 220 218 223 219 226 234 236 231 226 201 182 196 195 206 193 196 201 204 197 199 203 197 199 201 202 199 194 198 200 198 193 189 186 191 194 200 198 200 199 202 186 198 217 195 206 208 209 209 211 213 216 217 218 218 219 216 217 224 226 231 229 235 241 248 249 243